TimeCST,TemperatureF,Dew PointF,Humidity,Sea Level PressureIn,VisibilityMPH,Wind Direction,Wind SpeedMPH,Gust SpeedMPH,PrecipitationIn,Events,Conditions,WindDirDegrees,DateUTC
12:15 AM,45.1,24.8,45,30.14,10.0,South,6.9,-,N/A,,Clear,170,2013-11-15 06:15:00
12:35 AM,45.9,24.6,43,30.14,10.0,South,8.1,-,N/A,,Clear,170,2013-11-15 06:35:00
12:55 AM,45.1,24.3,44,30.13,10.0,South,5.8,-,N/A,,Clear,170,2013-11-15 06:55:00
1:15 AM,44.8,24.3,45,30.13,10.0,Calm,Calm,-,N/A,,Clear,0,2013-11-15 07:15:00
1:35 AM,44.6,24.8,46,30.13,10.0,Calm,Calm,-,N/A,,Clear,0,2013-11-15 07:35:00
1:55 AM,44.6,25.7,48,30.13,10.0,Calm,Calm,-,N/A,,Clear,0,2013-11-15 07:55:00
2:15 AM,43.9,26.2,50,30.13,10.0,Calm,Calm,-,N/A,,Clear,0,2013-11-15 08:15:00
2:35 AM,44.1,26.6,50,30.13,10.0,Calm,Calm,-,N/A,,Clear,0,2013-11-15 08:35:00
2:55 AM,43.0,26.4,52,30.13,10.0,Calm,Calm,-,N/A,,Clear,0,2013-11-15 08:55:00
3:15 AM,43.0,27.5,54,30.13,10.0,SSE,3.5,-,N/A,,Clear,150,2013-11-15 09:15:00
3:35 AM,41.9,29.1,61,30.13,10.0,SSE,3.5,-,N/A,,Clear,150,2013-11-15 09:35:00
3:55 AM,42.3,29.1,60,30.14,10.0,Calm,Calm,-,N/A,,Clear,0,2013-11-15 09:55:00
4:15 AM,45.3,27.5,50,30.14,10.0,Calm,Calm,-,N/A,,Clear,0,2013-11-15 10:15:00
4:35 AM,45.5,27.9,50,30.14,10.0,South,3.5,-,N/A,,Clear,170,2013-11-15 10:35:00
4:55 AM,45.9,28.0,50,30.14,10.0,South,3.5,-,N/A,,Scattered Clouds,170,2013-11-15 10:55:00
5:15 AM,45.9,28.9,52,30.13,10.0,South,3.5,-,N/A,,Overcast,190,2013-11-15 11:15:00
5:35 AM,45.9,29.3,52,30.13,10.0,Calm,Calm,-,N/A,,Overcast,0,2013-11-15 11:35:00
5:55 AM,45.9,29.8,54,30.13,10.0,South,4.6,-,N/A,,Overcast,180,2013-11-15 11:55:00
6:15 AM,46.4,30.6,54,30.14,10.0,South,6.9,-,N/A,,Overcast,190,2013-11-15 12:15:00
6:35 AM,46.8,31.3,55,30.14,10.0,South,4.6,-,N/A,,Overcast,190,2013-11-15 12:35:00
6:55 AM,46.6,32.0,57,30.15,10.0,SSW,3.5,-,N/A,,Overcast,200,2013-11-15 12:55:00
7:15 AM,47.1,32.2,56,30.15,10.0,South,4.6,-,N/A,,Overcast,170,2013-11-15 13:15:00
7:35 AM,47.3,32.9,57,30.15,10.0,South,3.5,-,N/A,,Mostly Cloudy,170,2013-11-15 13:35:00
7:55 AM,47.5,33.4,58,30.15,10.0,South,3.5,-,N/A,,Mostly Cloudy,170,2013-11-15 13:55:00
8:15 AM,48.2,33.8,58,30.15,10.0,SSE,3.5,-,N/A,,Overcast,160,2013-11-15 14:15:00
8:35 AM,48.4,33.8,57,30.15,10.0,South,3.5,-,N/A,,Overcast,180,2013-11-15 14:35:00
8:55 AM,48.6,34.5,58,30.14,10.0,SSE,3.5,-,N/A,,Overcast,160,2013-11-15 14:55:00
9:15 AM,49.1,35.1,58,30.14,10.0,SSE,3.5,-,N/A,,Overcast,150,2013-11-15 15:15:00
9:35 AM,49.5,35.8,59,30.14,10.0,Calm,Calm,-,N/A,,Overcast,0,2013-11-15 15:35:00
9:55 AM,50.4,36.7,59,30.15,10.0,South,6.9,-,N/A,,Overcast,180,2013-11-15 15:55:00
10:15 AM,51.1,36.0,56,30.15,10.0,South,9.2,-,N/A,,Overcast,170,2013-11-15 16:15:00
10:35 AM,51.4,36.1,56,30.14,10.0,SSW,4.6,-,N/A,,Overcast,200,2013-11-15 16:35:00
10:55 AM,51.1,35.8,56,30.14,10.0,SSW,4.6,-,N/A,,Overcast,210,2013-11-15 16:55:00
11:15 AM,51.4,36.7,57,30.12,10.0,SSW,4.6,-,N/A,,Overcast,200,2013-11-15 17:15:00
11:35 AM,50.9,37.8,61,30.11,10.0,Calm,Calm,-,N/A,Rain,Light Rain,0,2013-11-15 17:35:00
11:55 AM,50.9,37.8,61,30.10,5.0,Calm,Calm,-,N/A,,Haze,0,2013-11-15 17:55:00
12:15 PM,50.9,38.5,62,30.09,10.0,Calm,Calm,-,N/A,Rain,Light Rain,0,2013-11-15 18:15:00
12:35 PM,50.2,39.6,67,30.08,7.0,Calm,Calm,-,N/A,Rain,Rain,0,2013-11-15 18:35:00
12:55 PM,50.9,40.6,68,30.07,10.0,SSE,3.5,-,N/A,Rain,Light Rain,150,2013-11-15 18:55:00
1:15 PM,52.2,41.0,66,30.06,10.0,South,6.9,-,N/A,,Overcast,170,2013-11-15 19:15:00
1:35 PM,52.9,41.9,66,30.05,10.0,SSE,5.8,-,N/A,,Overcast,160,2013-11-15 19:35:00
1:55 PM,53.4,42.8,67,30.05,10.0,SE,6.9,-,N/A,,Overcast,140,2013-11-15 19:55:00
2:15 PM,52.7,42.8,69,30.05,10.0,South,6.9,-,N/A,,Overcast,170,2013-11-15 20:15:00
2:35 PM,52.5,42.8,70,30.05,10.0,South,5.8,-,N/A,,Overcast,170,2013-11-15 20:35:00
2:55 PM,52.9,43.7,71,30.05,10.0,SSE,5.8,-,N/A,,Overcast,150,2013-11-15 20:55:00
3:15 PM,53.1,44.1,71,30.05,10.0,SSE,3.5,-,N/A,,Overcast,160,2013-11-15 21:15:00
3:35 PM,52.9,44.4,73,30.05,10.0,SE,4.6,-,N/A,,Overcast,140,2013-11-15 21:35:00
3:55 PM,52.9,44.6,73,30.04,10.0,SSE,5.8,-,N/A,,Overcast,150,2013-11-15 21:55:00
4:15 PM,52.7,44.8,74,30.05,10.0,SSE,3.5,-,N/A,,Overcast,160,2013-11-15 22:15:00
4:35 PM,52.2,44.6,75,30.05,10.0,SE,4.6,-,N/A,,Overcast,140,2013-11-15 22:35:00
4:55 PM,52.2,45.0,76,30.05,10.0,SSE,3.5,-,N/A,,Overcast,150,2013-11-15 22:55:00
5:15 PM,51.8,45.0,77,30.05,10.0,ESE,3.5,-,N/A,,Overcast,120,2013-11-15 23:15:00
5:35 PM,52.0,45.5,79,30.05,10.0,ESE,3.5,-,N/A,,Overcast,120,2013-11-15 23:35:00
5:55 PM,52.2,45.5,78,30.04,10.0,ESE,5.8,-,N/A,,Overcast,110,2013-11-15 23:55:00
6:15 PM,52.0,45.1,77,30.05,10.0,ESE,5.8,-,N/A,,Overcast,120,2013-11-16 00:15:00
6:35 PM,51.4,45.0,79,30.06,10.0,SE,4.6,-,N/A,,Overcast,140,2013-11-16 00:35:00
6:55 PM,51.8,45.5,79,30.05,10.0,ESE,4.6,-,N/A,,Overcast,120,2013-11-16 00:55:00
7:15 PM,52.2,45.9,79,30.04,10.0,ESE,5.8,-,N/A,,Overcast,120,2013-11-16 01:15:00
7:35 PM,52.0,45.7,79,30.04,10.0,ESE,5.8,-,N/A,,Overcast,120,2013-11-16 01:35:00
7:55 PM,51.6,45.3,79,30.05,10.0,SE,5.8,-,N/A,,Mostly Cloudy,130,2013-11-16 01:55:00
8:15 PM,50.5,44.8,81,30.05,10.0,SE,3.5,-,N/A,,Mostly Cloudy,140,2013-11-16 02:15:00
8:35 PM,50.0,44.6,82,30.05,10.0,SE,5.8,-,N/A,,Mostly Cloudy,140,2013-11-16 02:35:00
8:55 PM,49.8,44.6,82,30.04,10.0,SE,4.6,-,N/A,,Mostly Cloudy,130,2013-11-16 02:55:00
9:15 PM,50.0,44.8,82,30.04,10.0,SE,4.6,-,N/A,,Mostly Cloudy,130,2013-11-16 03:15:00
9:35 PM,49.5,44.8,84,30.04,10.0,SE,3.5,-,N/A,,Scattered Clouds,140,2013-11-16 03:35:00
9:55 PM,48.4,43.7,84,30.04,10.0,SE,4.6,-,N/A,,Scattered Clouds,130,2013-11-16 03:55:00
10:15 PM,48.9,44.6,85,30.04,10.0,SE,5.8,-,N/A,,Scattered Clouds,140,2013-11-16 04:15:00
10:35 PM,49.3,45.0,85,30.05,10.0,Calm,Calm,-,N/A,,Scattered Clouds,0,2013-11-16 04:35:00
10:55 PM,50.0,45.9,86,30.05,10.0,SSE,3.5,-,N/A,,Overcast,150,2013-11-16 04:55:00
11:15 PM,51.1,47.1,86,30.03,10.0,SSE,5.8,-,N/A,,Overcast,150,2013-11-16 05:15:00
11:35 PM,52.7,48.9,87,30.03,10.0,SSE,8.1,-,N/A,,Overcast,150,2013-11-16 05:35:00
11:55 PM,53.1,49.3,87,30.03,10.0,SSE,8.1,-,N/A,,Overcast,150,2013-11-16 05:55:00